Topeka, KS

4:32 AM CST on December 13, 2019 (GMT -0600)
Billard Municipal

Weather History for KTOP - August, 2019

Change the Weather History Date:

Monday, August 19, 2019

  Actual Average Record
Temperature  
Mean Temperature 83 °F 77 °F  
Max Temperature 94 °F 89 °F 109 °F (1936)
Min Temperature 71 °F 66 °F 52 °F (1950)
Degree Days  
Heating Degree Days 0 0  
Month to date heating degree days 0 0  
Since 1 June heating degree days 0 8  
Since 1 July heating degree days 0 0  
Cooling Degree Days 18 12  
Month to date cooling degree days 255 254  
Year to date cooling degree days 1134 1096  
Since 1 June cooling degree days 1022 970  
Growing Degree Days 32 (Base 50)    
Moisture  
Dew Point 73 °F    
Average Humidity 73    
Maximum Humidity 90    
Minimum Humidity 56    
Precipitation  
Precipitation 0.00 in 0.14 in 3.50 in (2005)
Month to date precipitation 7.94 2.59  
Year to date precipitation 36.80 24.92  
Snow  
Snow 0.00 in 0.00 in T in (1987)
Month to date snowfall T 0.0  
Year to date snowfall 18.5 11.3  
Since 1 July snowfall T 0.0  
Snow Depth 0.00 in    
Sea Level Pressure  
Sea Level Pressure 29.92 in    
Wind  
Wind Speed 5 mph (East)    
Max Wind Speed 14 mph    
Max Gust Speed 19 mph    
Visibility 10 miles    
Events      
T = Trace of Precipitation, MM = Missing Value Source: NWS Daily Summary

Daily Weather History Graph

Daily Weather History Graph

Search for Another Location

Airport or City:

Astronomy

Aug. 19, 2019 Rise Set
Actual Time 6:39 AM CDT 8:12 PM CDT
Civil Twilight 6:10 AM CDT 8:40 PM CDT
Nautical Twilight 5:36 AM CDT 9:14 PM CDT
Astronomical Twilight 5:00 AM CDT 9:50 PM CDT
Moon 10:35 PM CDT (8/19) 10:19 AM CDT (8/19)
Length of Visible Light 14h 29m
Length of Day
13h 33m
Waning Gibbous, 85% of the Moon is Illuminated
Aug 19
Waning Gibbous
Aug 23
Last Quarter
Aug 30
New
Sep 5
First Quarter
Sep 13
Full

Hourly Weather History & Observations

Time (CDT) Temp. Heat Index Dew Point Humidity Pressure Visibility Wind Dir Wind Speed Gust Speed Precip Events Conditions
12:53 AM 75.0 °F - 70.0 °F 84% 29.91 in 10.0 mi NE 6.9 mph - N/A   Clear
1:53 AM 73.9 °F - 69.1 °F 85% 29.91 in 10.0 mi ENE 3.5 mph - N/A   Clear
2:53 AM 73.0 °F - 68.0 °F 84% 29.91 in 10.0 mi Calm Calm - N/A   Clear
3:53 AM 71.1 °F - 68.0 °F 90% 29.92 in 10.0 mi North 3.5 mph - N/A   Clear
4:53 AM 71.1 °F - 68.0 °F 90% 29.93 in 10.0 mi Calm Calm - N/A   Partly Cloudy
5:53 AM 71.1 °F - 68.0 °F 90% 29.93 in 10.0 mi Calm Calm - N/A   Partly Cloudy
6:53 AM 72.0 °F - 68.0 °F 87% 29.95 in 10.0 mi NE 3.5 mph - N/A   Mostly Cloudy
7:53 AM 73.9 °F - 69.1 °F 85% 29.96 in 10.0 mi NE 3.5 mph - N/A   Partly Cloudy
8:53 AM 77.0 °F - 70.0 °F 79% 29.96 in 10.0 mi East 5.8 mph - N/A   Clear
9:53 AM 80.1 °F 84.2 °F 73.0 °F 79% 29.96 in 10.0 mi East 5.8 mph - N/A   Clear
10:53 AM 84.9 °F 93.3 °F 75.0 °F 72% 29.96 in 10.0 mi East 5.8 mph - N/A   Clear
11:53 AM 87.1 °F 96.3 °F 75.0 °F 67% 29.96 in 10.0 mi Variable 4.6 mph - N/A   Clear
12:53 PM 89.1 °F 98.0 °F 73.9 °F 61% 29.94 in 10.0 mi Variable 3.5 mph - N/A   Clear
1:53 PM 91.0 °F 101.6 °F 75.0 °F 59% 29.93 in 10.0 mi SE 6.9 mph - N/A   Clear
2:53 PM 91.9 °F 103.9 °F 75.9 °F 59% 29.91 in 10.0 mi ESE 8.1 mph - N/A   Partly Cloudy
3:53 PM 93.0 °F 105.3 °F 75.9 °F 57% 29.89 in 10.0 mi ESE 9.2 mph - N/A   Clear
4:53 PM 93.0 °F 106.7 °F 77.0 °F 59% 29.88 in 10.0 mi SE 9.2 mph - N/A   Clear
5:53 PM 93.0 °F 105.3 °F 75.9 °F 57% 29.88 in 10.0 mi SE 9.2 mph - N/A   Clear
6:53 PM 91.9 °F 105.9 °F 77.0 °F 62% 29.86 in 10.0 mi SSE 9.2 mph - N/A   Clear
7:53 PM 89.1 °F 101.4 °F 77.0 °F 67% 29.87 in 10.0 mi ESE 4.6 mph - N/A   Clear
8:53 PM 84.0 °F 94.8 °F 78.1 °F 82% 29.89 in 10.0 mi ESE 5.8 mph - N/A   Clear
9:53 PM 82.0 °F 90.2 °F 77.0 °F 85% 29.91 in 10.0 mi ESE 3.5 mph - N/A   Clear
10:53 PM 81.0 °F 87.3 °F 75.9 °F 85% 29.92 in 10.0 mi ESE 3.5 mph - N/A   Clear
11:53 PM 81.0 °F 87.3 °F 75.9 °F 85% 29.91 in 10.0 mi SE 5.8 mph - N/A   Clear